User: anonymous   Login
Location: Newark
(48.1500°N, 2.9667°W)
Time: 04:23:24
(UTC+00:00)
Language:

A-11 Canister half - Orbit

View from above orbital plane
View from above orbital plane
View from above satellite
View from above satellite

Ground track
Ground track

The orbit data is extracted from the following two-line orbital elements,

1    53U 60009E   20018.36480136 -.00000049 +00000-0 +35536-3 0  9994
2    53 047.2783 004.9192 0099296 353.6869 006.2665 12.17236343650166
Epoch (UTC): 18 January 2020 08:45:18
Eccentricity: 0.0099296
inclination: 47.2783°
perigee height: 1525 km
apogee height: 1684 km
right ascension of ascending node: 4.9192°
argument of perigee: 353.6869°
revolutions per day: 12.17236343
mean anomaly at epoch: 6.2665°
orbit number at epoch: 65016

The dashed part of the orbit path shows where the satellite is in the earth's shadow,  

DLR